Regional Weather Roundup
Issued by NWS Newport/Morehead, NC

Current Version | Previous Version | Text Only | Print | Product List | Glossary Off
Versions: 1 2 3 4 5 6 7 8 9 10 11 12 13 14 15 16 17 18 19 20 21 22 23 24 25 26 27 28 29 30 31 32 33 34 35 36 37 38 39 40 41 42 43 44 45 46 47 48 49 50
000 ASUS42 KMHX 240225 RWRMHX WEATHER ROUNDUP FOR EASTERN NORTH CAROLINA NATIONAL WEATHER SERVICE NEWPORT/MOREHEAD CITY NC 1000 PM EDT SAT JUL 23 2016 NOTE: "FAIR" INDICATES FEW OR NO CLOUDS BELOW 12,000 FEET WITH NO SIGNIFICANT WEATHER AND/OR OBSTRUCTIONS TO VISIBILITY NCZ015>017-031-032-045>047-102-103-240300- NORTH COAST CITY SKY/WX TMP DP RH WIND PRES REMARKS EDENTON CLEAR 86 72 63 SW10 29.98R ELIZABETH CITY CLEAR 83 76 79 S9 29.97R KITTY HAWK CLEAR 83 75 77 SW6 29.97R MANTEO N/A 83 78 84 SW13 29.99R $$ NCZ045>047-081-094-103-104-240300- CENTRAL COAST CITY SKY/WX TMP DP RH WIND PRES REMARKS FRISCO CLEAR 83 75 77 SW8 30.01R $$ NCZ095-097-098-100-101-240300- SOUTHERN COAST CITY SKY/WX TMP DP RH WIND PRES REMARKS BEAUFORT CLEAR 82 76 81 SW7 30.01R CEDAR ISLAND NOT AVBL JACKSONVILLE CLEAR 79 74 84 S3 29.99R PINEY ISLAND NOT AVBL WILMINGTON CLEAR 81 75 82 SW6 30.00R $$ NCZ011>013-027>030-043-044-078>080-089-090>093-098-240300- COASTAL PLAIN CITY SKY/WX TMP DP RH WIND PRES REMARKS AHOSKIE CLEAR 80 77 90 CALM 29.97R CLINTON CLEAR 77 73 87 CALM 29.99F ELIZABETHTOWN CLEAR 75 73 92 CALM 30.00R GOLDSBORO CLEAR 82 78 87 S6 29.97R GREENVILLE CLEAR 82 77 83 SW9 30.00R HAVELOCK CLEAR 80 74 81 S3 30.02R KENANSVILLE NOT AVBL KINSTON NOT AVBL NEW BERN CLEAR 79 73 82 S5 30.01R RICHLANDS CLEAR 77 73 87 SW3 30.00R ROCKY MOUNT CLEAR 81 77 88 S3 29.97R WASHINGTON CLEAR 81 74 79 S6 29.99R WHITEVILLE MOCLDY 74 72 92 CALM 29.99R $$ AMZ130-135-150-152-154-156-158-170-250-252-270-ANZ085-086-088-633-658-670-240300- MARINE OBSERVATIONS STATION/POSITION TIME TEMP WIND PRES WAVE SWELL AIR SEA DIR/SP/G HT/PER HT/PER (UTC) (F) (DEG/KT/KT) (MB) (FT/S) (FT/S) CHESAPEAKE LIGHT NOT AVBL 64 E VA BEACH 0150 82 80 210/ 16/ 19 1014.0 3/ 4 2/ 8 DUCK 0200 85 67 N/A 2 E DUCK 0111 77 N/A 2/ 8 OREGON INLET 0100 85 84 N/A 13E OREGON INLT 0200 83 N/A 2/ 4 2/ 8 HATTERAS CG 0100 83 83 N/A DIAMOND BUOY 0150 84 86 220/ 12/ 16 1016.4 3/ 8 2/ 8 CAPE LOOKOUT 0200 83 220/ 8/ 9 1015.9 BEAUFORT LAB 0200 83 84 N/A 30 SE NEW RVR IN 0208 84 85 210/ 14/ 16 1015.9 30 SE NEW RVR IN 0125 85 N/A 2/ 8 27 SE WRIGHTSVLE 0208 84 85 200/ 10/ 12 1016.3 5 SE WRIGHTSVLE 0208 84 84 230/ 8/ 12 1016.8 225 S CAPE HAT 0150 83 85 160/ 6/ 6 1016.9 3/ 9 3/ 9 41 SE CHARLESTON 0150 85 86 190/ 10/ 10 1015.6 2/ 9 2/ 9 $$

USA.gov is the U.S. government's official web portal to all federal, state and local government web resources and services.